North Island, CA

6:05 AM PDT on March 26, 2017 (GMT -0700)
North Island Naval Air Station

Weather History for KNZY - February, 2014

Change the Weather History Date:

Sunday, February 23, 2014

  Actual Average Record
Temperature  
Mean Temperature 65 °F -  
Max Temperature 73 °F 60 °F 79 °F (2009)
Min Temperature 57 °F 48 °F 43 °F (2006)
Growing Degree Days 15 (Base 50)    
Moisture  
Dew Point 53 °F    
Average Humidity 70    
Maximum Humidity 83    
Minimum Humidity 38    
Precipitation  
Precipitation 0.00 in - - ()
Sea Level Pressure  
Sea Level Pressure 29.95 in    
Wind  
Wind Speed 2 mph (SSW)    
Max Wind Speed 8 mph    
Max Gust Speed -    
Visibility 6 miles    
Events Fog    
Averages and records for this station are not official NWS values.
T = Trace of Precipitation, MM = Missing Value Source: NWS Daily Summary

Daily Weather History Graph

Daily Weather History Graph

Search for Another Location

Airport or City:

Trip Planner

Search our weather history database for the weather conditions in past years. The results will help you decide how hot, cold, wet, or windy it might be!

Date:

Astronomy

Feb. 23, 2014 Rise Set
Actual Time 6:23 AM PST 5:41 PM PST
Civil Twilight 5:58 AM PST 6:06 PM PST
Nautical Twilight 5:29 AM PST 6:34 PM PST
Astronomical Twilight 5:01 AM PST 7:03 PM PST
Moon 1:16 AM PST (2/23) 11:57 AM PST (2/23)
Length of Visible Light 12h 07m
Length of Day
11h 17m
Last Quarter, 38% of the Moon is Illuminated
Feb 23
Last Quarter
Mar 1
New
Mar 8
First Quarter
Mar 16
Full
Mar 23
Last Quarter

Hourly Weather History & Observations

Time (PST) Temp. Dew Point Humidity Pressure Visibility Wind Dir Wind Speed Gust Speed Precip Events Conditions
12:52 AM 59.0 °F 53.1 °F 81% 29.93 in 4.0 mi Calm Calm - N/A   Scattered Clouds
1:52 AM 61.0 °F 55.0 °F 81% 29.92 in 0.8 mi North 3.5 mph - N/A   Mostly Cloudy
2:08 AM 61.0 °F 55.0 °F 81% 29.92 in 0.2 mi NNE 3.5 mph - N/A Fog Fog
2:42 AM 61.0 °F 55.0 °F 81% 29.92 in 0.8 mi Calm Calm - N/A   Overcast
2:52 AM 61.0 °F 55.0 °F 81% 29.92 in 2.0 mi Calm Calm - N/A   Overcast
3:25 AM 61.0 °F 55.0 °F 81% 29.92 in 0.8 mi Calm Calm - N/A   Overcast
3:52 AM 61.0 °F 54.0 °F 78% 29.92 in 0.2 mi Calm Calm - N/A Fog Fog
4:52 AM 60.1 °F 54.0 °F 80% 29.93 in 0.2 mi Calm Calm - N/A Fog Fog
5:52 AM 59.0 °F 53.1 °F 81% 29.94 in 0.1 mi Calm Calm - N/A Fog Fog
6:52 AM 57.0 °F 52.0 °F 83% 29.96 in 0.2 mi Calm Calm - N/A Fog Fog
6:58 AM 57.0 °F 52.0 °F 83% 29.96 in 2.0 mi Calm Calm - N/A   Mostly Cloudy
7:20 AM 57.0 °F 51.1 °F 81% 29.97 in 3.0 mi Calm Calm - N/A   Mostly Cloudy
7:52 AM 59.0 °F 53.1 °F 81% 29.99 in 4.0 mi Calm Calm - N/A   Mostly Cloudy
8:52 AM 62.1 °F 45.0 °F 53% 30.00 in 7.0 mi SE 4.6 mph - N/A   Mostly Cloudy
9:52 AM 66.0 °F 54.0 °F 65% 30.00 in 9.0 mi South 4.6 mph - N/A   Mostly Cloudy
10:52 AM 66.0 °F 54.0 °F 65% 29.99 in 10.0 mi SSW 8.1 mph - N/A   Mostly Cloudy
11:52 AM 68.0 °F 55.0 °F 63% 29.97 in 10.0 mi SSW 6.9 mph - N/A   Mostly Cloudy
12:52 PM 73.0 °F 48.9 °F 42% 29.94 in 10.0 mi WSW 5.8 mph - N/A   Scattered Clouds
1:52 PM 72.0 °F 51.1 °F 48% 29.92 in 10.0 mi Variable 6.9 mph - N/A   Scattered Clouds
2:52 PM 73.0 °F 46.0 °F 38% 29.92 in 10.0 mi WSW 4.6 mph - N/A   Scattered Clouds
3:52 PM 72.0 °F 51.1 °F 48% 29.92 in 10.0 mi SSW 6.9 mph - N/A   Partly Cloudy
4:52 PM 66.0 °F 54.0 °F 65% 29.94 in 10.0 mi SSW 5.8 mph - N/A   Partly Cloudy
5:52 PM 64.0 °F 55.0 °F 73% 29.96 in 10.0 mi South 4.6 mph - N/A   Mostly Cloudy
6:52 PM 64.0 °F 54.0 °F 70% 29.96 in 10.0 mi SSE 4.6 mph - N/A   Mostly Cloudy
7:52 PM 63.0 °F 53.1 °F 70% 29.98 in 10.0 mi SSE 3.5 mph - N/A   Mostly Cloudy
8:52 PM 62.1 °F 53.1 °F 72% 29.99 in 8.0 mi Calm Calm - N/A   Scattered Clouds
9:52 PM 61.0 °F 52.0 °F 72% 29.99 in 9.0 mi Calm Calm - N/A   Partly Cloudy
10:52 PM 63.0 °F 54.0 °F 72% 30.00 in 10.0 mi Calm Calm - N/A   Mostly Cloudy
11:52 PM 63.0 °F 54.0 °F 72% 30.00 in 9.0 mi Calm Calm - N/A   Mostly Cloudy